PRAETORIAN SDA_609

Last updated on Thu Aug 20 2026 00:03:39 GMT+0000 (Coordinated Universal Time)

1 65572U 25203H 26231.47283576 .00000181 00000+0 15120-3 0 9994 2 65572 81.3066 312.1979 0007267 31.0325 329.1260 13.84215015 47452
UTC large
Height (km)
Speed (km/s)
/
Latitude / Longitude
Inclination (degrees)
Orbital Period (minutes)
Azimuth
Elevation
Range (km)
Doppler Factor

Next 0 passes for location: London (51.5072 / 0.1276)

No passes found over London.
PRAETORIAN SDA_609